Regional Weather Roundup
Issued by NWS

Home | Current Version | Previous Version | Graphics & Text | Print | Product List | Glossary On
Versions: 1 2 3 4 5 6 7 8 9 10 11 12 13 14 15 16 17 18 19 20 21 22 23 24 25 26 27 28 29 30 31 32 33 34 35 36 37 38 39 40 41 42 43 44 45 46 47 48 49 50
949
ASUS43 KLOT 072103
RWRIL

ILLINOIS REGIONAL WEATHER ROUNDUP
NATIONAL WEATHER SERVICE CHICAGO/ROMEOVILLE IL
300 PM CST SUN FEB 07 2016

NOTE: "FAIR" INDICATES FEW OR NO CLOUDS BELOW 12,000 FEET WITH NO
SIGNIFICANT WEATHER AND/OR OBSTRUCTIONS TO VISIBILITY.

* THESE STATIONS ARE NOT UNDER NWS QUALITY CONTROL. THEY ALSO MAY NOT
  REPORT WEATHER SUCH AS PRECIPITATION OR FOG.

ILZ001-002-007-009-015-016-024-072200-
NORTHWEST ILLINOIS

CITY           SKY/WX    TMP DP  RH WIND       PRES   REMARKS
MOLINE         SUNNY     47  26  44 W22G28    29.79R
STERLING*      SUNNY     45  32  61 W20       29.74R
$$

ILZ003-004-008-010-011-017-018-072200-
NORTH CENTRAL ILLINOIS

CITY           SKY/WX    TMP DP  RH WIND       PRES   REMARKS
ROCKFORD       MOSUNNY   44  31  60 W15       29.74R
FREEPORT*      SUNNY     41  30  64 W15       29.74R
DE KALB*       MOSUNNY   44  34  68 W20       29.72F
$$

ILZ005-006-012>014-019>023-072200-
NORTHEAST ILLINOIS

CITY           SKY/WX    TMP DP  RH WIND       PRES   REMARKS
CHICAGO-OHARE  PTSUNNY   42  32  67 SW12      29.72S
CHICAGO-MIDWAY CLOUDY    44  31  60 W18       29.74R
AURORA         CLOUDY    44  33  65 SW16      29.74S
LANSING*       CLOUDY    44  33  64 SW12G28   29.75S
WAUKEGAN       MOSUNNY   41  32  70 SW18      29.69S
DUPAGE AIRPORT CLOUDY    42  32  67 SW13      29.73R
WHEELING       CLOUDY    43  32  65 SW12      29.72S
NORTHERLY ISL    N/A     44  30  58 SW15        N/A
$$

LMZ740>746-072200-
SOUTHERN LAKE MICHIGAN

STATION/POSITION SKY/WX   TEMP    WIND        PRES    VSBY  WAVE
                          AIR SEA DIR/SP/G                  HT/PER
                          (F)     (DEG/KT/KT) (MB)    (MI)  (FT/S)
HARRISON CRIB              44     230/ 21/ 26   N/A
BURNHAM HARBOR             44     240/ 11/ 20   N/A
CALUMET HARBOR             44     220/ 12/ 20 1006.2F
BURNS HARBOR               45     230/ 15     1007.8S
MICHIGAN CITY              44     200/ 26/ 30   N/A
$$

ILZ025>027-034>036-040-047-049-050-058-095>099-072200-
WEST-CENTRAL ILLINOIS

CITY           SKY/WX    TMP DP  RH WIND       PRES   REMARKS
QUINCY         SUNNY     49  26  41 NW17      29.86S
MACOMB*        SUNNY     48  31  51 W21G26    29.85S
$$

ILZ028>032-037-038-041>044-048-051>054-059>061-072200-
CENTRAL ILLINOIS

CITY           SKY/WX    TMP DP  RH WIND       PRES   REMARKS
BLOOMINGTON    CLOUDY    44  33  65 W15G25    29.81R
DECATUR        CLOUDY    48  31  51 W16G24    29.84R
PEORIA         MOSUNNY   48  30  49 W17       29.81R
LINCOLN*       CLOUDY    47  34  60 W6        29.83S
SPRINGFIELD    CLOUDY    47  33  58 W18       29.85S
TAYLORVILLE    NOT AVBL
$$

ILZ033-039-045-046-055>057-062-063-072200-
EAST-CENTRAL ILLINOIS

CITY           SKY/WX    TMP DP  RH WIND       PRES   REMARKS
CHAMPAIGN      MOSUNNY   48  34  58 SW21      29.82S
MATTOON        MOSUNNY   50  30  46 W12G23    29.83F
$$

ILZ079-100>102-072200-
SOUTHWEST ILLINOIS

CITY           SKY/WX    TMP DP  RH WIND       PRES   REMARKS
ALTON          PTSUNNY   48  30  49 W21       29.89S
BELLEVILLE     CLOUDY    54  29  39 W20       29.88S
CAHOKIA*       CLOUDY    54  29  38 W10       29.90R
SPARTA*        CLOUDY    54  29  38 W13       29.90F
$$

ILZ064>066-069>071-074>076-080>082-084>086-088>090-092>094-072200-
SOUTH-CENTRAL ILLINOIS

CITY           SKY/WX    TMP DP  RH WIND       PRES   REMARKS
CARBONDALE     MOSUNNY   56  28  34 SW18G26   29.91F
MARION         MOSUNNY   57  30  35 SW14G21   29.91F
MT. VERNON     MOSUNNY   55  30  38 W14G23    29.89S
CENTRALIA*     PTSUNNY   55  34  45 W16G23    29.87F
SALEM*         MOSUNNY   55  30  38 W16       29.87F
$$

ILZ067-068-072-073-078-083-087-091-072200-
SOUTHEAST ILLINOIS

CITY           SKY/WX    TMP DP  RH WIND       PRES   REMARKS
LAWRENCEVILLE  MOSUNNY   56  28  34 SW25G32   29.87F
HARRISBURG*    SUNNY     56  31  38 SW20G26   29.91S
ROBINSON*      CLOUDY    54  30  40 SW20G29   29.87R
CARMI*         SUNNY     55  29  37 SW22G30   29.90R
$$

ABBREVIATIONS USED IN REMARKS
   TC - TEMPERATURE IN CELSIUS
  WCI - WIND CHILL INDEX
   HX - HEAT INDEX
  VSB - VISIBILITY
$$





USA.gov is the U.S. government's official web portal to all federal, state and local government web resources and services.